Flag for Germany Weather for the Past 2 Weeks in Neumarkt in der Oberpfalz, Bavaria, Germany

Now
36 °F

Fog.


Feels Like: 33 °F
Forecast: 33 / 47 °F
Wind: 3 mph from Southeast

Location: Hohenfels

Current Time: Feb 6, 2016 at 2:16:06 AM

Latest Report: Feb 6, 2016 at 12:58 AM


Visibility: 2 mi

Pressure: 30.30 "Hg

Humidity: 100%

Dew point: 36 °F

Location of Neumarkt in der OberpfalzLocation

Historic Weather in Neumarkt in der Oberpfalz — Graph

°F

Neumarkt in der Oberpfalz Temperature Yesterday

Maximum temperature yesterday: 41 °F (at 3:58 PM)
Minimum temperature yesterday: 32 °F (at 4:58 AM)
Average temperature yesterday: 36 °F

High & Low Weather Summary for the Past Weeks

 TemperatureHumidityPressure
High52 °F (Jan 27, 1:58 PM)100% (Jan 23, 10:58 AM)30.68 "Hg (Jan 23, 10:58 AM)
Low3 °F (Jan 22, 1:58 AM)54% (Jan 29, 2:58 PM)29.85 "Hg (Jan 31, 10:59 PM)
Average37 °F89%30.29 "Hg
* Reported Jan 22 12:58 AM — Feb 6 12:58 AM, Neumarkt in der Oberpfalz, Weather by CustomWeather, © 2016

Note: Actual official high and low records may vary slightly from our data, if they occured in-between our weather recording intervals... More about our weather records

Advertising

Neumarkt in der Oberpfalz Weather History for the Previous 24 Hours

 ConditionsComfort  
Time TempWeatherWind HumidityBarometerVisibility
12:58 AM
Sat, Feb 6
36 °FFog.3 mph100%30.30 "Hg2 mi
12:00 AM34 °FFog.3 mph100%30.25 "Hg2 mi
11:04 PM
Fri, Feb 5
34 °FFog.No wind100%30.26 "Hg2 mi
9:58 PM37 °FFog.3 mph100%30.33 "Hg6 mi
8:58 PM37 °FOvercast.5 mph100%30.35 "HgN/A
7:58 PM37 °FOvercast.1 mph100%30.36 "HgN/A
6:58 PM41 °FMostly cloudy.1 mph87%30.35 "HgN/A
5:58 PM41 °FOvercast.2 mph87%30.35 "HgN/A
4:58 PM41 °FOvercast.2 mph87%30.35 "HgN/A
3:58 PM41 °FMostly cloudy.2 mph81%30.36 "HgN/A
2:58 PM39 °FOvercast.No wind87%30.36 "HgN/A
1:58 PM39 °FOvercast.2 mph87%30.37 "HgN/A
12:58 PM39 °FOvercast.2 mph81%30.39 "HgN/A
12:02 PM37 °FMostly cloudy.3 mph81%30.35 "HgN/A
11:58 AM37 °FMostly cloudy.1 mph81%30.42 "HgN/A
10:58 AM36 °FOvercast.No wind87%30.43 "HgN/A
9:58 AM36 °FOvercast.3 mph87%30.43 "HgN/A
8:58 AM34 °FOvercast.2 mph93%30.43 "HgN/A
7:58 AM32 °FOvercast.2 mph100%30.42 "HgN/A
6:58 AM32 °FOvercast.2 mph93%30.42 "HgN/A
5:58 AM32 °FOvercast.3 mph93%30.40 "HgN/A
4:58 AM32 °FOvercast.1 mph100%30.39 "HgN/A
3:58 AM34 °FOvercast.5 mph93%30.35 "HgN/A
3:04 AM34 °FMostly cloudy.7 mph87%30.26 "HgN/A
2:58 AM34 °FMostly cloudy.6 mph87%30.33 "HgN/A
Weather by CustomWeather, © 2016

See weather overviewHow to use our weather pages